Date String (YYYY-MM-DD hh:mm:ss) UTC,Instrument flags,Ambient pressure (hPa),Sample flow (lpm),Bypass flow (lpm),Sample temperature (°C),Ambient temperature (°C),ASC tube jacket temperature (°C),LED temperature (°C),Box temperature (°C),Sample RH (%),Span deviation,Mass concentration (μg/m³),Mass concentration (μg/m³),Mass concentration (μg/m³)
DateTimeUTC,F1_M11,P_M11,Q1_M11,Q2_M11,T1_M11,T2_M11,T3_M11,T4_M11,T5_M11,U1_M11,ZSPAN_M11,X0_M11,X2_M11,X1_M11
2021-09-25 06:00:00,,0831.5,4.99,0.00,30.2,29.2,00.0,39.4,31.9,15.3,0002.8,0021.27,0006.58,0004.95
2021-09-25 06:01:00,,0831.5,5.00,0.00,30.2,29.2,00.0,39.4,31.9,15.3,0002.3,0021.61,0006.57,0004.93
2021-09-25 06:02:00,,0831.5,5.01,0.00,30.2,29.2,00.0,39.4,31.9,15.3,0002.4,0021.75,0006.55,0004.92
2021-09-25 06:03:00,,0831.5,5.00,0.00,30.2,29.2,00.0,39.4,31.9,15.3,0002.1,0021.76,0006.50,0004.89
2021-09-25 06:04:00,,0831.5,5.00,0.00,30.2,29.2,00.0,39.4,31.9,15.3,0002.3,0021.66,0006.54,0004.88
2021-09-25 06:05:00,,0831.5,5.00,0.00,30.2,29.2,00.0,39.4,31.9,15.3,0002.6,0021.80,0006.54,0004.88
2021-09-25 06:06:00,,0831.5,4.99,0.00,30.2,29.2,00.0,39.4,31.9,15.3,0003.1,0021.16,0006.49,0004.85
2021-09-25 06:07:00,,0831.5,5.01,0.00,30.2,29.2,00.0,39.4,31.9,15.3,0003.3,0021.29,0006.45,0004.82
2021-09-25 06:08:00,,0831.5,5.01,0.00,30.2,29.1,00.0,39.4,31.9,15.3,0003.6,0019.83,0006.39,0004.82
2021-09-25 06:09:00,,0831.4,5.00,0.00,30.2,29.1,00.0,39.4,31.9,15.2,0003.1,0019.14,0006.35,0004.81
2021-09-25 06:10:00,,0831.5,5.01,0.00,30.2,29.2,00.0,39.4,31.9,15.2,0002.7,0018.24,0006.35,0004.80
2021-09-25 06:11:00,,0831.5,4.99,0.00,30.2,29.2,00.0,39.4,31.9,15.2,0002.7,0018.63,0006.37,0004.78
2021-09-25 06:12:00,,0831.4,5.00,0.00,30.2,29.2,00.0,39.4,31.9,15.2,0002.6,0019.72,0006.44,0004.77
2021-09-25 06:13:00,,0831.4,5.01,0.00,30.2,29.2,00.0,39.4,31.9,15.2,0002.6,0021.16,0006.55,0004.77
2021-09-25 06:14:00,,0831.4,4.99,0.00,30.2,29.2,00.0,39.4,31.9,15.2,0001.0,0020.32,0006.59,0004.78
2021-09-25 06:15:00,,0831.4,5.00,0.00,30.2,29.2,00.0,39.4,32.0,15.2,0002.1,0019.66,0006.52,0004.77
2021-09-25 06:16:00,,0831.3,4.99,0.00,30.2,29.2,00.0,39.4,31.9,15.2,0002.0,0018.46,0006.45,0004.75
2021-09-25 06:17:00,,0831.3,5.00,0.00,30.2,29.2,00.0,39.4,31.9,15.2,0001.9,0018.41,0006.44,0004.74
2021-09-25 06:18:00,,0831.3,5.00,0.00,30.2,29.2,00.0,39.4,31.9,15.3,0002.0,0018.45,0006.46,0004.73
2021-09-25 06:19:00,,0831.3,5.01,0.00,30.2,29.2,00.0,39.4,32.0,15.3,0001.8,0020.04,0006.49,0004.74
2021-09-25 06:20:00,,0831.2,5.00,0.00,30.2,29.2,00.0,39.4,31.9,15.3,0002.0,0019.71,0006.56,0004.74
2021-09-25 06:21:00,,0831.2,5.00,0.00,30.2,29.2,00.0,39.4,31.9,15.3,0002.3,0020.00,0006.55,0004.73
2021-09-25 06:22:00,,0831.2,4.99,0.00,30.2,29.2,00.0,39.4,31.9,15.3,0002.5,0019.90,0006.50,0004.73
2021-09-25 06:23:00,,0831.2,5.01,0.00,30.2,29.2,00.0,39.4,31.9,15.3,0002.5,0018.79,0006.46,0004.73
2021-09-25 06:24:00,,0831.2,4.99,0.00,30.2,29.2,00.0,39.4,31.9,15.3,0002.2,0017.67,0006.36,0004.72
2021-09-25 06:25:00,,0831.2,4.99,0.00,30.2,29.2,00.0,39.4,31.9,15.3,0002.5,0017.93,0006.33,0004.72
2021-09-25 06:26:00,,0831.2,5.01,0.00,30.2,29.2,00.0,39.4,31.9,15.3,0002.5,0018.23,0006.36,0004.73
2021-09-25 06:27:00,,0831.2,5.00,0.00,30.2,29.1,00.0,39.4,31.9,15.3,0002.2,0018.96,0006.45,0004.73
2021-09-25 06:28:00,,0831.2,4.99,0.00,30.2,29.2,00.0,39.4,31.9,15.3,0002.3,0019.53,0006.54,0004.74
2021-09-25 06:29:00,,0831.2,5.00,0.00,30.2,29.2,00.0,39.4,31.9,15.3,0002.0,0019.66,0006.48,0004.75
2021-09-25 06:30:00,,0831.2,5.00,0.00,30.2,29.1,00.0,39.4,31.9,15.2,0002.1,0018.87,0006.43,0004.73
2021-09-25 06:31:00,,0831.2,5.00,0.00,30.2,29.1,00.0,39.4,31.9,15.2,0002.2,0019.42,0006.39,0004.73
2021-09-25 06:32:00,,0831.2,5.01,0.00,30.2,29.1,00.0,39.4,31.9,15.3,0002.0,0019.62,0006.36,0004.74
2021-09-25 06:33:00,,0831.1,4.99,0.00,30.2,29.2,00.0,39.4,32.0,15.2,0001.7,0019.27,0006.35,0004.73
2021-09-25 06:34:00,,0831.1,5.00,0.00,30.2,29.2,00.0,39.4,32.0,15.2,0002.0,0019.12,0006.38,0004.74
2021-09-25 06:35:00,,0831.1,4.99,0.00,30.3,29.2,00.0,39.4,31.9,15.2,0001.6,0019.17,0006.42,0004.75
2021-09-25 06:36:00,,0831.0,5.00,0.00,30.2,29.2,00.0,39.4,31.9,15.2,0000.3,0018.87,0006.44,0004.75
2021-09-25 06:37:00,,0831.0,5.00,0.00,30.2,29.2,00.0,39.5,31.9,15.2,0000.6,0018.65,0006.44,0004.75
2021-09-25 06:38:00,,0831.1,5.00,0.00,30.3,29.2,00.0,39.5,32.0,15.2,0000.6,0018.75,0006.35,0004.74
2021-09-25 06:39:00,,0831.0,4.98,0.00,30.3,29.2,00.0,39.5,31.9,15.2,0000.3,0018.61,0006.33,0004.75
2021-09-25 06:40:00,,0831.0,5.01,0.00,30.3,29.2,00.0,39.5,31.9,15.2,0000.4,0018.18,0006.43,0004.76
2021-09-25 06:41:00,,0831.0,5.01,0.00,30.3,29.2,00.0,39.5,31.9,15.2,0000.1,0017.00,0006.48,0004.78
2021-09-25 06:42:00,,0831.0,4.99,0.00,30.3,29.2,00.0,39.5,31.9,15.2,0000.0,0016.83,0006.45,0004.78
2021-09-25 06:43:00,,0831.0,4.99,0.00,30.3,29.2,00.0,39.5,31.9,15.2,0000.0,0016.70,0006.52,0004.78
2021-09-25 06:44:00,,0831.0,5.00,0.00,30.3,29.2,00.0,39.4,31.9,15.2,0000.8,0016.25,0006.49,0004.78
2021-09-25 06:45:00,,0831.0,5.00,0.00,30.3,29.2,00.0,39.4,31.9,15.2,0000.8,0016.02,0006.41,0004.78
2021-09-25 06:46:00,,0831.0,5.01,0.00,30.3,29.2,00.0,39.5,31.9,15.2,0001.1,0015.67,0006.36,0004.77
2021-09-25 06:47:00,,0831.0,5.00,0.00,30.3,29.2,00.0,39.5,32.0,15.1,0002.1,0015.56,0006.34,0004.77
2021-09-25 06:48:00,,0830.9,4.99,0.00,30.3,29.2,00.0,39.5,32.0,15.1,0002.5,0016.62,0006.28,0004.78
2021-09-25 06:49:00,,0830.9,5.01,0.00,30.3,29.2,00.0,39.5,32.0,15.1,0002.3,0017.31,0006.28,0004.79
2021-09-25 06:50:00,,0830.9,5.00,0.00,30.3,29.2,00.0,39.5,31.9,15.1,0002.0,0017.00,0006.26,0004.78
2021-09-25 06:51:00,,0830.9,4.99,0.00,30.3,29.2,00.0,39.5,31.9,15.1,0002.0,0017.16,0006.25,0004.78
2021-09-25 06:52:00,,0830.9,5.02,0.00,30.3,29.2,00.0,39.5,32.0,15.1,0001.8,0017.14,0006.24,0004.77
2021-09-25 06:53:00,,0830.9,4.99,0.00,30.3,29.2,00.0,39.5,32.0,15.1,0001.2,0016.48,0006.24,0004.77
2021-09-25 06:54:00,,0830.9,5.01,0.00,30.3,29.2,00.0,39.5,32.0,15.1,0001.3,0016.32,0006.30,0004.78
2021-09-25 06:55:00,,0830.8,5.00,0.00,30.3,29.3,00.0,39.5,32.0,15.1,0001.3,0016.58,0006.39,0004.80
2021-09-25 06:56:00,,0830.8,5.01,0.00,30.3,29.3,00.0,39.5,32.0,15.1,0001.4,0017.61,0006.46,0004.80
2021-09-25 06:57:00,,0830.7,4.99,0.00,30.3,29.2,00.0,39.5,32.0,15.1,0001.7,0017.59,0006.47,0004.82
2021-09-25 06:58:00,,0830.7,5.00,0.00,30.3,29.2,00.0,39.5,32.0,15.1,0001.3,0017.50,0006.49,0004.82
2021-09-25 06:59:00,,0830.7,5.00,0.00,30.3,29.2,00.0,39.5,32.0,15.1,0001.5,0016.68,0006.55,0004.82
